GFSFLT2_700_rhum_000.txt.gz
RH
44 46 42 50 67 56 59 59 58 64 66 67 69 75 56 7 4 6 8 12 14 13 9 10 12 19 29
41 38 48 54 97 95 57 60 62 64 65 68 70 75 29 1 6 8 12 13 9 9 10 10 10 13 30
38 40 45 46 64 76 56 63 64 64 66 70 71 61 3 5 7 11 11 11 11 13 13 12 11 11 18
41 43 47 50 77 89 58 66 68 68 70 75 74 28 3 6 10 11 12 11 14 14 13 12 13 15 15
47 49 48 46 82 82 62 68 70 73 74 81 72 6 5 9 11 15 12 14 16 16 17 18 18 16 18
46 50 51 78 55 73 64 71 74 73 80 86 43 2 7 10 14 14 13 16 17 19 23 27 29 30 23
51 51 58 60 82 58 62 73 78 78 89 84 7 6 10 12 17 13 16 18 18 20 25 30 35 37 40
58 67 86 72 50 54 62 77 80 88 94 36 3 9 12 17 14 15 19 18 20 24 31 38 42 46 47
73 71 92 93 50 54 65 77 94 96 84 3 8 12 15 17 14 18 19 21 28 38 50 57 60 64 71
87 93 90 68 56 59 67 94 96 95 36 4 11 14 19 14 18 19 22 30 43 52 56 57 58 60 66
99 86 87 86 71 67 78 96 97 94 7 8 13 18 19 15 19 22 31 42 48 54 60 64 66 65 65
92 96 99 80 82 73 88 97 97 40 6 12 16 24 16 18 21 31 40 48 53 60 64 67 67 63 63
91 98 99 91 83 82 96 97 89 7 10 14 23 20 16 20 31 40 47 55 61 63 62 65 63 60 64
89 99 94 93 81 95 97 96 32 8 13 19 22 14 19 30 39 47 57 64 68 64 58 69 75 72 74
98 99 96 97 96 96 97 86 8 10 15 22 12 19 27 40 49 56 66 66 61 56 62 78 82 69 74
99 98 98 93 96 98 96 14 8 14 21 15 16 23 35 52 62 59 61 60 60 62 68 66 74 71 72
99 98 98 96 98 97 62 8 11 16 17 13 22 34 46 52 60 58 53 57 64 71 72 76 76 86 84

GFSFLT2_700_rhum_003.txt.gz
RH
64 72 73 60 42 48 40 46 51 78 58 59 62 69 74 74 74 63 4 4 8 12 14 12 11 11 12
65 65 69 62 56 48 54 59 62 76 56 62 66 76 75 74 78 31 2 7 11 15 13 12 11 14 14
65 79 77 62 58 53 56 62 75 98 71 61 69 76 74 76 76 6 4 10 15 15 12 12 14 16 18
70 90 83 72 70 46 49 62 89 100 66 60 70 76 78 80 45 4 9 14 17 12 12 13 16 19 21
74 81 85 96 77 62 57 54 99 93 60 62 76 72 79 81 10 8 12 18 13 13 14 16 19 23 26
91 94 84 98 92 71 60 52 91 92 61 67 76 74 89 56 6 12 17 16 13 15 16 20 24 30 34
96 93 92 96 96 90 57 70 69 69 64 73 82 92 82 10 11 14 18 13 14 17 20 26 35 44 50
98 98 98 96 98 98 86 87 97 70 69 78 90 93 38 7 13 18 16 13 16 19 26 37 43 47 51
99 99 96 97 98 98 91 97 94 75 80 84 94 78 8 10 17 19 14 15 16 25 35 42 47 52 57
99 100 98 99 99 93 98 97 89 81 84 92 91 29 8 14 20 16 13 15 23 33 41 48 56 59 62
99 99 99 96 98 96 97 99 89 92 92 96 62 8 12 20 18 14 15 22 32 40 46 55 64 65 62
99 99 99 99 96 96 98 97 99 94 98 90 11 11 19 20 12 16 25 36 44 49 54 59 62 57 58
99 98 99 99 99 96 97 99 98 97 95 27 10 16 19 11 17 28 35 47 50 52 51 56 56 63 69
98 98 99 99 99 98 97 97 99 99 65 9 13 18 11 19 29 35 42 47 54 53 52 61 65 64 64
98 97 99 99 99 98 97 92 100 91 14 11 17 10 19 28 36 41 49 55 53 56 55 62 72 66 62
98 98 99 97 98 98 92 98 97 29 10 16 10 17 28 39 47 50 51 52 58 63 64 60 68 78 71
99 98 99 98 99 96 95 98 56 10 15 12 14 26 37 42 50 50 50 57 59 65 69 70 75 86 86

GFSFLT2_700_rhum_009.txt.gz
RH
86 84 83 84 67 60 62 59 71 93 98 98 99 96 96 77 97 78 89 79 59 62 67 72 80 39 6
74 75 80 91 93 62 70 67 71 90 98 99 96 100 99 75 81 88 82 97 64 64 68 78 75 8 9
78 80 87 94 100 78 81 82 83 84 99 95 94 99 98 99 96 84 100 82 66 68 72 84 29 8 15
89 80 96 94 89 97 82 86 98 93 98 99 100 94 96 99 99 92 98 69 73 72 82 61 8 13 17
85 83 83 100 70 99 94 99 100 87 97 99 97 99 96 99 91 98 94 85 82 84 87 14 10 17 13
90 86 84 86 97 99 93 99 99 99 99 99 98 99 98 99 95 99 94 94 86 94 44 8 16 15 11
100 93 93 92 91 99 81 88 99 99 99 99 100 99 97 99 97 98 97 92 96 67 8 14 17 11 14
67 71 89 89 90 96 97 99 99 99 99 99 99 98 99 99 98 97 95 97 78 13 12 17 11 14 22
62 62 64 89 89 99 97 99 98 97 99 99 99 99 98 98 98 96 97 87 18 11 16 10 15 24 30
52 76 84 87 99 91 96 96 98 99 99 99 99 99 99 99 97 98 93 20 10 14 10 18 26 31 42
56 91 95 86 99 99 99 99 99 98 99 99 99 98 98 98 96 88 25 9 14 10 20 28 34 41 49
72 83 99 94 95 99 99 98 98 98 98 98 98 98 97 94 94 29 10 13 11 22 28 34 42 47 45
91 97 99 98 98 99 98 98 98 98 99 98 98 96 89 83 15 13 12 13 24 30 35 40 46 41 43
99 99 98 98 98 99 98 98 98 98 98 98 91 90 43 10 14 11 15 25 30 37 42 44 47 46 51
97 99 98 98 98 98 98 98 98 98 97 91 78 19 11 14 12 20 27 37 43 46 44 44 53 58 51
98 98 98 98 98 98 98 97 97 97 96 53 11 12 12 15 25 33 39 41 41 45 50 49 55 71 60
97 97 97 97 97 96 97 97 97 94 24 10 14 12 24 33 41 39 41 45 46 53 64 71 64 73 72

GFSFLT2_700_rhum_012.txt.gz
RH
72 78 80 80 77 78 76 75 83 82 69 68 62 76 90 99 98 90 99 94 97 80 97 98 96 83 66
60 63 68 71 69 71 70 79 77 97 89 72 64 74 89 99 99 99 98 97 87 92 91 89 100 75 70
52 55 64 75 78 76 74 75 89 96 99 96 89 91 92 99 99 99 99 98 90 99 82 90 89 69 78
66 62 62 62 78 80 81 74 71 99 98 97 97 98 99 99 99 98 99 99 98 99 87 98 77 85 86
55 61 61 93 90 87 88 91 89 92 90 98 96 100 97 99 99 99 99 99 99 99 98 97 94 88 93
49 48 47 69 86 97 98 99 89 84 92 79 96 97 96 99 99 99 98 99 99 99 97 97 83 91 64
53 45 46 44 57 74 84 81 88 78 90 80 99 99 99 99 99 99 98 98 98 98 98 93 92 70 12
53 45 46 45 47 57 68 77 85 89 96 95 99 99 99 99 99 98 98 98 98 98 97 91 79 15 15
52 45 42 46 53 80 85 94 77 90 97 100 100 100 97 99 98 98 98 98 98 98 93 82 19 14 14
46 40 53 58 66 99 97 98 98 98 100 98 99 100 99 99 98 98 98 98 98 97 85 23 14 13 14
57 54 63 65 72 91 99 98 99 98 99 98 98 99 98 98 98 98 98 97 96 73 18 14 12 15 25
78 70 98 96 91 92 93 99 98 98 98 98 98 98 98 98 98 98 98 96 83 44 15 12 16 25 31
97 95 98 99 98 98 98 98 98 98 98 98 97 98 98 97 97 97 96 61 14 14 12 20 28 34 40
98 99 98 98 97 98 97 97 97 97 98 97 97 97 97 97 97 79 22 12 13 16 25 31 37 39 41
100 98 97 97 98 97 96 97 97 97 97 97 97 97 96 66 19 12 12 16 25 31 37 43 42 45 48
98 98 96 96 97 96 96 97 97 97 97 97 94 43 13 14 13 16 26 35 40 42 43 45 48 54 60
96 96 96 96 96 96 96 97 98 97 97 31 12 13 13 22 32 38 41 42 42 45 50 57 63 75 78

GFSFLT2_700_rhum_015.txt.gz
RH
36 38 44 56 65 75 74 74 75 67 63 73 83 89 97 99 94 74 73 74 78 98 99 99 99 88 92
37 36 33 30 28 36 46 63 66 70 76 71 72 96 92 98 98 80 78 79 86 95 99 99 98 98 98
50 42 42 39 36 36 40 55 57 64 87 78 76 80 95 89 99 98 93 96 94 99 100 99 99 99 99
57 43 44 39 47 47 42 39 38 64 66 74 83 85 82 87 98 98 99 94 99 99 99 99 99 99 98
47 57 43 44 52 52 51 47 41 40 43 53 76 81 73 85 92 98 99 98 99 99 99 99 99 99 97
62 70 58 67 58 53 52 49 39 43 48 43 59 64 83 92 90 92 98 98 99 99 99 99 98 99 98
78 81 80 79 71 59 56 52 43 39 48 48 98 63 75 100 100 87 95 99 99 99 99 99 98 98 98
55 81 83 80 76 67 57 52 43 38 46 40 56 59 54 82 99 96 98 99 98 98 98 99 98 98 98
52 82 86 79 72 66 57 59 50 45 52 58 80 63 66 80 98 98 98 99 99 98 98 98 98 98 97
57 74 77 72 69 83 86 100 100 85 57 66 69 97 93 87 100 98 98 99 98 97 97 98 98 97 96
79 81 86 88 88 86 94 100 100 100 90 100 93 99 100 97 99 98 98 98 98 97 98 97 98 97 94
90 93 98 100 100 100 97 98 100 100 100 99 98 98 98 98 98 98 98 98 97 97 97 97 95 91 28
96 95 94 93 97 98 99 100 97 98 98 98 98 98 98 97 98 97 98 97 97 97 97 95 38 17 13
95 95 93 97 99 97 96 97 96 96 97 97 97 97 97 96 96 97 97 97 97 95 48 16 13 15 24
95 94 97 98 98 96 96 96 96 96 97 97 97 97 96 96 97 97 96 72 29 15 14 17 24 31 38
94 95 96 96 96 96 96 96 96 96 96 96 96 97 97 90 47 17 14 14 15 21 28 34 41 46 50
95 96 95 96 96 96 96 96 96 96 97 95 76 22 15 14 14 16 21 30 39 43 46 48 50 50 54

GFSFLT2_700_rhum_018.txt.gz
RH
6 5 6 8 8 22 33 39 38 33 38 58 64 72 70 70 85 95 100 99 99 99 86 88 99 93 98
5 5 4 4 5 10 20 29 37 40 40 45 52 57 68 70 74 80 87 94 93 99 98 96 95 100 96
4 4 4 4 4 6 12 22 39 42 42 63 59 63 69 76 83 82 77 76 95 98 96 99 98 99 97
4 4 4 4 4 4 5 14 27 47 49 49 48 42 40 58 84 86 85 73 80 65 88 97 98 99 100
6 5 4 3 3 4 7 12 15 42 53 52 51 46 42 39 51 91 92 87 96 88 89 99 99 99 98
10 8 6 5 7 10 18 28 17 38 48 42 50 45 43 37 42 54 82 91 96 99 84 90 97 98 98
12 10 13 13 19 21 38 60 58 45 69 46 52 45 44 41 34 58 78 94 100 100 100 89 98 99 99
15 28 46 51 95 94 82 87 76 62 68 57 52 44 41 40 35 36 56 68 98 98 99 92 99 99 99
23 28 32 46 65 82 88 99 88 77 66 66 46 44 43 43 40 52 60 63 80 98 100 97 98 98 98
26 33 44 64 93 97 96 97 100 89 80 87 70 72 66 48 48 67 99 74 93 97 95 98 98 98 98
32 44 79 95 96 96 97 97 96 92 93 100 92 95 92 82 85 88 100 97 88 98 98 98 98 97 97
59 80 90 96 97 97 97 98 98 96 93 98 93 94 97 98 100 98 98 98 98 98 97 97 96 96 96
64 72 91 96 96 99 98 96 96 96 97 96 97 97 99 97 98 98 98 97 97 97 96 96 96 96 96
79 95 94 94 95 99 96 95 96 96 96 96 97 96 97 97 96 96 97 96 97 96 96 96 96 97 95
95 93 94 95 97 97 96 96 96 96 96 96 96 96 96 96 96 96 96 96 96 96 96 96 96 87 43
96 98 97 96 96 96 96 96 96 96 96 96 96 96 96 96 96 96 96 96 96 96 90 42 23 18 16
97 96 96 96 96 96 96 96 96 96 96 96 96 95 93 58 82 70 32 25 20 18 18 19 20 26 36

GFSFLT2_700_rhum_021.txt.gz
RH
8 7 6 6 5 5 5 5 5 5 4 6 11 28 36 41 44 64 83 96 98 90 98 99 99 99 98
10 9 8 7 6 6 5 5 5 5 4 4 5 7 30 41 39 41 55 66 78 85 91 84 100 99 99
14 11 10 8 7 6 5 5 5 4 4 4 4 6 16 33 44 42 55 72 70 79 90 85 86 82 91
15 14 12 10 10 8 6 5 4 4 4 4 4 4 18 31 39 58 62 75 76 85 78 79 74 73 90
21 21 18 15 13 10 8 6 4 4 4 3 4 5 16 42 41 43 45 42 50 76 89 81 77 62 53
61 38 27 18 12 11 10 14 36 38 29 12 22 19 15 37 46 44 44 41 40 51 85 89 80 74 64
39 26 21 17 22 25 29 42 49 39 52 63 69 58 35 42 53 46 39 40 40 50 58 96 75 96 83
29 22 22 25 38 87 87 88 86 72 90 97 83 78 61 54 50 46 40 37 38 43 61 84 91 89 87
19 24 35 36 62 100 94 99 86 77 88 95 82 96 98 70 55 49 48 45 41 41 63 70 75 99 88
16 23 39 64 96 98 97 95 94 80 89 94 93 100 96 63 57 67 68 51 47 41 50 58 68 99 83
24 30 56 88 96 96 97 96 94 90 96 95 91 99 97 91 90 91 88 82 70 88 86 88 89 98 98
34 57 77 87 95 96 98 98 98 96 96 100 94 99 98 94 92 91 100 94 90 100 98 95 96 98 97
73 95 93 91 90 94 98 98 96 96 96 97 96 95 96 94 97 99 97 98 95 96 96 99 97 98 96
97 92 88 91 95 99 97 97 96 96 96 96 96 96 97 98 96 98 99 95 97 99 95 97 96 96 96
96 94 94 97 97 96 96 96 96 96 96 96 98 98 98 98 98 98 97 96 97 97 96 97 96 96 96
97 98 97 97 96 96 96 96 96 96 96 96 96 96 96 97 96 96 96 97 97 96 96 96 96 96 96
97 97 97 96 97 96 96 96 96 96 96 96 96 95 97 96 95 95 96 96 96 96 96 96 96 96 95

GFSFLT2_700_rhum_024.txt.gz
RH
10 7 8 10 12 13 12 11 10 9 8 6 5 5 5 5 5 5 8 22 33 37 61 85 93 98 98
11 11 9 9 10 13 11 11 10 10 9 8 6 5 5 5 5 5 5 6 20 41 38 65 68 87 89
18 20 22 18 20 15 13 12 13 13 9 8 7 6 5 5 5 5 5 5 9 32 41 37 59 76 80
44 83 80 40 33 24 20 18 17 14 11 9 7 6 5 4 4 4 4 5 8 35 39 47 48 73 77
84 83 54 32 29 27 22 16 13 15 38 60 20 18 8 5 4 4 4 4 6 23 47 72 73 74 69
92 62 32 34 34 24 21 25 26 18 53 47 32 24 26 22 13 5 4 3 5 26 55 67 76 72 76
64 44 40 35 26 22 30 64 37 35 77 77 69 73 61 58 52 29 18 12 12 18 37 44 44 42 45
46 43 40 23 30 40 55 67 72 79 97 88 78 77 77 74 81 63 55 46 45 38 40 36 38 41 44
40 37 25 26 38 58 74 94 82 83 98 93 92 90 83 75 91 98 76 72 57 45 44 38 38 38 34
30 21 22 27 54 100 97 95 93 84 98 95 97 96 77 84 91 100 89 67 56 48 42 37 35 38 39
26 24 37 74 95 97 97 97 95 90 92 97 93 94 93 75 83 90 99 89 68 51 42 39 37 40 61
37 62 87 92 94 94 98 98 98 96 97 98 94 96 93 88 84 97 97 100 84 58 52 48 54 70 54
88 89 92 97 97 99 97 98 98 98 96 96 96 95 92 91 94 96 98 99 99 100 96 100 100 99 99
98 98 98 97 98 99 97 96 96 96 96 96 96 96 96 96 96 96 98 98 98 98 97 98 97 98 98
97 97 97 97 97 97 96 96 96 96 96 96 96 96 96 96 97 96 96 99 97 96 96 97 98 98 97
98 97 97 97 96 96 97 97 96 96 96 96 96 96 96 96 96 96 96 97 98 98 97 96 97 96 96
97 97 97 96 97 97 97 97 96 96 95 96 96 96 96 96 96 96 96 97 97 96 96 96 96 95 96

GFSFLT2_700_rhum_030.txt.gz
RH
4 5 5 8 10 16 23 28 24 24 36 39 30 20 31 77 89 80 83 34 22 9 9 8 5 5 15
8 10 16 17 19 22 30 42 52 47 50 32 24 29 97 83 32 20 23 55 44 34 10 9 6 5 8
29 22 21 30 37 36 36 40 45 42 36 29 30 25 15 14 43 90 49 64 53 89 58 9 8 5 5
95 55 56 50 72 66 47 36 31 32 31 29 23 20 26 29 40 73 88 82 96 87 100 54 8 6 5
95 90 100 63 55 38 37 31 29 38 26 14 19 22 31 48 70 82 72 64 66 90 100 100 88 7 5
100 89 56 43 38 40 43 42 24 30 27 15 39 35 52 69 76 86 96 93 87 78 96 98 82 8 6
86 53 45 43 50 45 41 44 38 51 77 33 64 63 68 72 85 95 96 96 96 98 75 96 57 6 6
59 52 58 57 64 80 85 88 88 87 94 73 77 79 85 85 91 96 96 95 90 88 74 42 37 5 6
50 51 56 84 100 99 93 96 86 87 87 95 88 81 83 84 93 97 98 99 100 96 86 53 21 6 5
47 64 95 98 100 100 100 98 96 90 90 98 91 91 83 86 96 96 96 98 95 88 86 73 28 8 4
93 90 95 99 100 99 100 100 99 94 92 100 96 94 100 93 96 97 96 93 86 85 89 85 40 9 4
89 92 95 95 96 98 99 99 99 99 97 98 95 98 97 93 95 98 92 93 91 90 88 85 54 17 6
94 98 99 98 97 95 98 98 98 96 97 97 97 96 97 95 95 97 96 96 98 97 100 90 73 52 29
97 97 97 97 98 98 97 97 97 97 98 97 96 97 98 96 97 97 97 97 94 97 100 83 71 62 56
96 97 97 96 97 97 96 97 97 95 96 97 98 98 96 98 96 98 96 97 99 98 98 100 92 81 66
97 97 96 97 96 96 97 97 96 96 96 96 97 97 97 96 97 97 96 97 96 96 97 97 99 100 99
97 97 97 98 96 95 96 97 98 96 96 96 96 96 96 97 97 96 96 96 98 96 98 100 99 98 98

GFSFLT2_700_rhum_033.txt.gz
RH
8 5 5 9 12 24 44 31 26 30 29 83 80 34 80 59 47 67 97 93 95 100 99 95 99 98 70
6 5 11 16 19 22 33 39 41 49 65 44 30 35 28 27 32 43 29 36 36 33 100 98 99 100 100
19 20 22 38 40 37 33 36 42 37 35 34 35 32 29 25 20 29 47 76 98 89 96 100 84 82 100
93 74 74 59 60 56 38 37 37 36 33 35 32 26 23 24 21 20 23 27 35 40 51 70 49 46 77
100 96 92 57 48 42 40 38 37 34 26 33 44 45 40 42 44 42 48 57 60 69 64 77 84 72 88
100 89 53 47 47 48 46 53 69 85 85 70 84 73 74 73 75 74 70 68 76 82 88 79 82 81 79
89 54 48 49 60 85 98 97 89 80 94 74 86 84 84 80 84 80 80 77 76 80 84 81 82 86 78
55 53 67 94 100 100 93 94 89 84 99 85 81 79 85 85 88 92 86 82 86 96 91 88 79 69 54
53 80 98 97 100 100 95 97 86 79 96 93 82 82 81 83 98 99 99 98 99 100 100 100 100 78 56
89 97 100 99 100 100 99 97 97 82 94 98 90 97 82 87 96 98 99 100 93 90 94 92 80 74 43
98 98 97 97 97 98 99 99 96 91 98 100 95 94 97 89 94 100 95 92 87 84 86 84 82 78 28
96 96 96 96 96 97 98 98 100 99 97 98 96 96 94 90 94 97 98 94 96 98 97 93 85 77 18
96 96 97 97 97 94 97 97 97 96 98 98 97 98 96 92 95 95 94 96 96 95 99 93 88 63 12
95 96 97 96 96 95 96 95 94 96 97 97 96 96 96 96 96 96 96 98 96 97 97 98 53 12 6
95 95 96 95 97 96 95 96 96 95 94 97 96 96 96 98 96 96 96 96 95 96 100 100 83 33 8
99 96 81 71 71 83 74 94 96 95 95 96 97 97 97 97 94 95 96 94 94 98 97 99 100 100 82
98 94 83 69 62 51 57 67 92 98 96 96 96 96 96 96 87 94 97 97 97 97 97 97 97 98 98

GFSFLT2_700_rhum_036.txt.gz
RH
13 11 8 7 10 24 50 39 33 25 27 25 26 29 26 36 66 86 64 86 99 100 100 100 89 94 85
9 7 7 8 14 31 51 52 57 42 33 28 26 26 27 32 37 48 47 63 94 69 90 100 100 100 98
10 10 14 26 40 39 42 51 46 41 38 39 37 33 32 29 28 29 31 46 81 82 68 60 85 94 84
26 34 62 63 68 68 43 42 39 37 42 60 65 65 62 57 45 28 22 17 15 14 13 13 14 43 78
71 98 100 64 55 46 45 52 67 67 72 71 78 77 71 74 74 68 58 38 26 26 27 30 30 29 29
100 80 54 46 49 71 80 82 73 68 86 71 85 76 74 78 76 72 72 70 70 68 55 53 83 100 98
63 47 46 75 92 94 91 83 71 75 97 76 79 74 83 88 86 84 84 77 73 71 75 72 64 68 74
47 67 96 99 100 100 89 92 82 88 99 88 79 80 86 88 99 99 94 95 91 86 81 77 77 75 72
84 97 98 99 100 97 93 93 77 72 96 90 78 80 83 93 99 100 100 100 98 96 95 97 96 96 95
86 94 100 100 99 99 97 94 88 69 92 93 86 96 84 87 96 99 96 94 94 92 90 94 90 97 96
89 96 96 96 96 98 100 97 92 86 99 99 94 97 99 88 94 98 96 97 97 96 95 96 98 97 92
92 93 90 93 94 97 97 98 99 98 97 99 95 98 96 92 95 100 97 97 96 96 96 96 97 99 93
88 92 96 93 87 82 97 96 97 97 97 97 97 97 98 99 97 92 91 96 97 97 97 99 99 93 87
91 92 89 79 69 69 72 64 82 95 97 96 97 96 98 100 100 96 96 96 98 97 98 98 89 90 80
92 91 90 86 73 72 66 66 80 94 94 97 98 97 97 96 96 94 95 97 96 96 98 98 61 38 25
97 97 92 92 79 81 95 84 69 92 93 95 96 98 98 93 91 95 98 94 92 97 100 97 25 6 6
96 95 96 95 96 94 87 94 80 93 96 96 96 97 95 93 93 98 97 97 96 97 100 96 48 23 6

GFSFLT2_700_rhum_042.txt.gz
RH
5 4 4 8 15 24 30 31 26 26 29 31 29 32 36 34 27 26 27 41 100 100 100 99 96 88 85
4 6 13 18 22 26 30 29 28 42 61 69 77 78 72 73 71 66 62 57 54 48 55 96 100 98 95
18 24 23 25 27 32 33 48 71 73 74 79 84 84 81 82 82 80 74 68 66 64 63 65 99 100 100
32 34 34 36 36 49 64 69 73 69 81 96 90 91 89 87 83 79 74 71 69 68 67 64 62 53 84
44 38 34 40 69 75 76 67 63 73 79 77 72 69 68 72 79 86 90 92 82 70 66 66 68 64 59
34 35 64 77 78 76 81 76 55 75 78 68 81 68 83 86 89 92 92 90 87 86 85 79 78 71 68
48 80 78 83 83 81 81 79 74 78 88 65 74 72 84 92 98 95 90 84 79 76 74 76 78 78 73
80 83 89 90 95 91 85 83 70 61 82 69 74 76 80 96 100 100 95 92 88 84 80 78 79 79 80
82 87 91 96 99 94 87 76 58 47 72 63 77 77 73 86 98 99 96 97 94 90 92 92 89 87 85
76 86 94 99 99 97 96 84 65 42 70 72 78 91 62 76 96 98 98 98 98 97 95 94 94 98 93
80 85 87 84 90 87 95 99 71 91 98 97 87 94 100 84 79 95 96 96 93 94 96 96 98 99 97
84 85 77 82 79 78 88 98 100 100 92 100 94 96 95 86 83 83 94 96 96 97 100 99 98 100 98
82 84 87 80 79 74 85 91 90 98 100 99 98 95 94 98 95 95 89 82 88 88 94 100 99 97 97
87 86 87 86 84 80 72 64 56 66 98 97 97 96 94 100 96 95 98 92 85 96 100 67 99 98 98
89 87 88 87 88 80 72 63 63 61 81 96 97 96 97 94 87 94 96 99 98 96 97 57 96 86 88
93 95 90 87 87 90 82 74 70 68 87 88 88 84 78 83 88 92 94 100 96 98 98 80 46 41 39
96 94 91 93 94 91 88 85 83 80 91 94 94 87 71 91 96 93 93 97 95 99 98 76 25 22 23

GFSFLT2_700_rhum_045.txt.gz
RH
5 3 3 9 15 24 25 22 21 36 55 57 58 60 59 60 60 60 59 58 59 77 100 100 100 95 93
3 4 7 14 21 20 22 40 58 59 65 68 67 73 76 74 71 72 72 70 65 61 60 82 99 92 91
9 11 16 20 21 36 54 58 60 66 66 72 76 77 78 77 77 72 68 68 69 69 67 66 65 90 99
22 25 25 30 54 60 52 64 62 63 64 67 69 70 67 72 76 83 82 82 82 82 80 77 67 62 64
40 30 37 60 62 67 66 62 60 64 53 40 40 49 63 69 80 87 87 83 81 84 86 82 79 78 66
33 47 67 73 71 74 72 66 46 59 46 38 47 39 60 77 92 82 75 74 78 81 83 84 85 81 81
60 79 75 79 78 74 72 66 58 68 67 39 43 38 69 94 95 92 88 82 81 84 87 88 85 80 80
80 81 81 86 90 83 76 71 65 65 91 40 50 54 66 87 97 98 97 94 92 92 88 87 90 89 86
78 79 90 92 97 93 87 74 50 50 86 56 54 65 64 73 82 89 92 95 97 100 99 93 92 95 94
70 85 90 97 99 98 88 74 70 47 88 59 64 83 50 63 77 86 88 98 94 96 96 99 100 100 96
79 85 86 86 90 91 92 97 85 79 87 84 76 86 89 74 67 83 87 87 82 94 96 97 97 96 94
87 85 77 82 86 90 93 89 96 90 76 96 92 97 91 80 80 86 86 91 80 75 84 98 100 100 98
79 79 84 85 88 88 92 83 80 86 81 97 98 94 93 89 93 97 92 72 80 74 90 96 92 100 99
82 86 87 85 88 90 85 79 64 64 82 95 96 96 88 99 96 93 93 98 86 89 95 100 80 84 96
92 87 87 86 88 90 87 82 85 76 58 88 97 97 98 90 84 94 95 97 97 97 99 87 35 46 78
94 92 89 88 85 85 84 82 80 84 76 84 85 90 89 87 86 92 97 97 96 96 100 79 35 27 51
95 94 91 91 90 86 85 81 82 88 86 90 94 90 77 73 92 98 95 96 94 98 100 96 66 37 26

GFSFLT2_700_rhum_048.txt.gz
RH
5 4 4 5 11 18 22 20 24 44 50 50 56 58 54 56 61 61 58 57 57 57 58 64 100 99 95
4 4 5 10 19 21 23 47 49 54 60 57 62 58 60 64 65 65 60 57 56 57 57 58 63 100 100
4 6 8 17 21 30 54 54 58 61 66 64 63 61 54 48 50 60 60 61 65 67 68 65 63 65 81
13 12 18 26 39 58 54 60 59 63 64 53 46 47 41 39 39 50 60 65 69 72 72 73 75 76 75
20 27 29 50 60 59 61 62 59 59 51 47 49 45 43 38 50 68 75 74 69 72 75 76 77 77 78
33 33 66 68 68 66 69 63 47 55 65 30 53 40 50 54 74 79 74 72 75 81 84 84 82 85 83
42 75 76 71 73 70 68 67 56 63 69 31 52 45 57 72 88 85 81 79 83 91 93 91 84 82 85
76 77 78 87 91 86 78 64 61 55 79 43 48 46 53 75 86 94 89 83 83 91 91 95 99 94 91
73 80 88 93 98 92 86 83 70 49 69 54 45 45 52 67 72 75 78 87 92 90 94 94 96 99 92
74 84 87 88 96 98 94 87 81 52 71 51 45 65 44 56 65 79 80 87 90 90 89 86 97 95 89
77 84 86 88 92 97 99 96 85 83 83 67 46 63 83 65 62 85 83 85 90 86 90 93 98 97 95
83 85 84 90 94 96 95 97 95 93 89 90 60 78 83 79 76 78 79 89 92 82 83 82 89 98 100
82 86 90 90 92 88 89 90 87 97 96 89 80 91 99 90 85 83 88 84 89 92 94 84 65 74 84
85 86 88 87 90 90 85 80 75 73 91 91 89 100 97 93 91 88 90 94 91 98 94 98 99 56 54
91 88 88 88 91 94 90 82 79 75 67 82 97 99 98 96 79 84 88 92 97 96 94 96 85 48 35
93 93 91 92 87 91 94 89 85 76 72 77 79 82 96 98 95 80 87 93 96 97 98 97 75 43 29
96 98 94 93 96 93 94 89 84 78 87 85 90 93 82 80 86 96 88 94 93 98 98 98 98 77 36

GFSFLT2_700_rhum_051.txt.gz
RH
5 5 4 4 5 8 11 14 16 29 45 49 57 54 58 56 50 50 50 48 49 52 49 51 49 52 78
4 4 4 7 12 18 19 21 47 50 54 59 61 56 62 58 51 49 44 36 31 38 48 48 50 53 56
3 4 7 14 21 26 33 53 52 56 60 67 62 49 49 47 45 46 43 36 31 36 43 56 65 66 63
5 8 12 22 32 49 58 57 56 60 62 61 55 50 41 44 45 50 43 35 31 47 62 59 64 66 67
12 13 21 34 63 63 60 59 58 62 61 48 54 40 41 50 59 61 52 49 61 68 66 70 70 72 74
18 26 47 64 66 60 61 67 54 57 63 51 51 35 44 47 61 73 65 76 79 73 72 72 72 77 80
33 62 68 69 72 76 72 69 58 59 74 58 49 33 39 42 71 84 88 92 87 81 79 77 81 84 86
68 67 68 78 89 88 78 68 58 71 83 75 56 39 35 38 75 90 94 90 81 79 82 83 84 85 86
64 69 85 87 93 91 79 76 68 65 80 77 57 37 31 34 66 84 79 86 91 93 90 86 82 82 80
67 79 80 78 81 90 89 83 79 66 89 79 62 63 29 28 59 79 79 89 94 94 90 89 88 89 89
75 74 78 82 89 93 96 95 86 78 97 91 68 71 74 36 50 72 80 88 94 96 96 100 100 99 94
72 80 82 83 87 91 91 96 96 91 86 96 72 77 77 61 61 65 76 93 97 95 93 87 93 95 99
86 86 87 89 90 91 88 92 89 96 95 96 83 82 88 86 78 76 79 89 97 94 87 89 92 96 84
90 93 92 91 90 94 88 90 84 80 89 91 89 93 91 98 93 86 94 96 90 96 88 84 97 99 93
93 90 90 88 87 93 93 88 85 86 77 77 90 96 100 100 89 98 86 84 93 98 93 82 90 98 100
94 93 90 89 87 88 90 88 85 84 85 82 79 78 82 92 96 84 83 86 84 90 97 93 82 93 97
95 96 97 92 92 88 87 86 84 86 87 86 86 90 77 69 79 98 84 88 81 83 93 97 91 86 96

GFSFLT2_700_rhum_054.txt.gz
RH
4 4 4 3 3 4 7 9 11 20 39 46 50 57 58 53 55 54 48 46 44 42 42 40 39 42 50
4 4 4 4 5 9 12 18 34 50 51 53 58 63 60 54 48 43 38 34 32 31 33 33 29 28 38
3 4 5 7 12 16 28 46 52 52 54 61 63 63 54 48 45 38 32 32 30 28 27 30 28 30 52
4 6 8 13 27 46 50 53 50 53 55 63 59 55 58 52 39 40 52 46 40 35 32 35 43 59 58
7 8 12 33 61 60 55 53 54 56 54 51 51 52 59 53 43 54 54 49 50 54 60 64 68 66 68
10 10 32 61 63 62 65 67 54 54 55 48 66 54 59 48 46 51 50 57 64 68 79 80 78 74 69
13 33 58 62 65 75 72 67 55 61 72 62 65 54 57 48 54 52 60 82 82 82 84 86 82 76 71
35 60 64 70 80 79 71 71 67 70 79 72 61 53 49 50 59 56 81 90 94 90 87 84 82 77 74
63 66 76 80 77 75 77 76 66 64 79 77 63 54 41 44 56 61 82 90 92 94 91 88 86 85 83
64 70 70 72 81 86 86 82 78 66 91 74 66 64 33 36 46 63 77 88 93 95 94 91 92 93 90
67 74 79 83 84 89 90 88 81 80 98 93 77 73 71 48 42 59 78 78 77 87 94 97 96 98 94
73 77 77 79 80 86 89 90 91 94 94 98 88 84 72 61 51 50 77 82 86 83 90 95 97 95 94
76 79 81 83 84 85 89 90 85 91 97 100 94 86 80 72 67 61 77 69 91 92 95 93 96 96 88
79 85 85 82 84 88 83 84 80 77 87 97 95 93 82 81 84 83 91 84 78 84 85 85 96 98 94
90 89 86 84 84 87 88 84 83 82 77 82 90 86 81 89 84 94 92 79 79 80 82 83 87 98 93
94 93 90 87 82 86 90 90 88 86 84 86 82 67 60 74 96 92 85 77 72 78 82 82 78 94 96
95 96 93 87 89 89 89 89 86 89 88 92 84 78 60 52 63 95 87 74 79 71 76 79 81 86 95

GFSFLT2_700_rhum_060.txt.gz
RH
11 8 6 5 5 4 3 3 3 4 5 11 29 37 38 40 42 44 45 48 47 46 46 46 44 42 44
8 6 5 4 4 3 3 4 5 8 30 40 42 40 42 41 43 45 46 46 45 45 44 40 37 35 33
6 5 4 4 3 3 4 5 9 40 42 40 43 45 47 46 45 40 38 39 41 40 40 36 37 31 27
5 4 4 3 4 4 4 12 37 44 40 37 42 41 42 44 48 51 54 58 58 54 47 47 38 31 30
4 4 4 4 5 6 15 35 34 44 35 38 45 46 53 54 54 56 61 61 62 60 54 48 39 33 34
4 4 5 6 8 32 38 32 25 47 44 42 52 44 48 48 48 54 61 60 60 60 55 49 40 36 35
5 6 6 22 45 42 37 40 42 52 49 37 58 48 52 54 61 70 69 63 58 53 53 50 42 36 39
7 10 35 51 50 46 48 52 50 61 71 44 59 51 50 54 67 71 73 77 69 59 55 58 52 43 52
20 53 61 63 71 66 69 64 59 64 78 66 58 53 48 47 63 68 70 77 74 74 72 70 61 63 66
55 63 71 76 80 80 81 79 79 66 78 73 64 70 44 42 49 60 63 79 79 80 76 74 78 80 77
54 64 72 76 82 90 98 96 90 83 96 95 71 73 76 53 49 62 63 66 68 70 80 89 86 87 81
58 66 74 82 89 94 96 98 96 94 91 96 81 87 79 68 66 61 64 63 61 65 76 84 87 88 89
68 74 79 83 88 90 92 97 91 100 98 96 96 93 89 82 74 64 65 55 61 68 71 72 77 86 86
76 84 86 87 88 92 88 91 84 85 99 97 95 94 88 83 80 68 67 59 63 69 66 61 64 64 64
86 85 84 84 86 92 94 90 87 84 80 93 98 96 93 92 80 72 75 82 82 75 70 60 56 57 61
86 85 84 83 80 83 90 94 90 88 84 87 81 73 68 62 92 82 83 80 75 73 74 66 56 65 72
87 88 84 85 90 92 93 95 92 93 90 93 84 84 76 71 77 97 94 88 90 83 84 80 69 66 76

GFSFLT2_700_rhum_066.txt.gz
RH
75 26 21 18 15 10 7 6 5 4 3 3 3 2 2 2 3 4 7 20 28 28 25 24 24 28 26
22 21 16 11 7 6 5 4 3 3 3 3 3 3 4 5 13 27 32 30 25 25 24 24 27 26 26
19 13 8 6 6 4 3 3 3 3 4 4 6 16 30 34 33 31 31 29 28 29 31 33 34 32 31
9 7 6 4 4 3 3 3 3 4 12 25 36 37 36 40 39 38 38 39 38 37 36 35 34 36 35
6 5 4 4 4 4 4 3 5 21 29 30 37 41 50 51 52 53 54 52 49 46 43 41 39 40 43
4 4 4 4 4 4 6 17 19 26 28 28 45 46 55 56 60 62 60 56 53 51 50 46 47 49 48
4 4 5 5 6 16 27 28 31 44 50 40 62 58 64 66 70 73 76 74 68 62 57 54 55 52 51
5 6 6 13 29 29 36 42 50 59 65 43 59 52 57 60 67 76 89 93 85 76 68 63 61 57 59
7 9 31 40 44 47 57 53 43 50 61 62 49 46 46 49 58 64 72 93 94 87 79 78 77 77 72
15 42 46 53 62 67 59 52 56 48 71 58 58 64 38 43 50 62 69 77 75 76 75 75 72 65 57
38 46 58 67 71 66 64 66 64 67 83 81 67 73 70 47 41 56 65 74 78 76 79 78 73 70 62
51 59 66 68 64 65 68 70 70 80 90 94 83 86 75 59 47 48 60 61 60 60 63 65 65 64 60
60 68 66 58 66 69 72 73 70 85 93 100 94 88 91 87 82 74 76 66 82 72 67 60 60 69 72
68 68 61 63 71 73 67 67 70 80 90 95 98 100 94 93 83 74 85 81 89 92 76 69 71 77 78
73 65 63 65 69 74 70 65 74 81 85 95 98 95 95 97 92 96 97 90 89 80 78 76 80 82 81
75 67 65 69 68 70 69 72 78 85 89 92 90 81 79 79 95 84 75 78 81 85 89 81 73 84 94
71 71 71 73 77 74 74 75 80 88 92 95 93 94 80 68 89 98 90 95 90 86 89 88 75 78 81

GFSFLT2_700_rhum_072.txt.gz
RH
98 98 98 98 98 90 82 58 26 16 10 8 7 6 4 3 2 2 2 2 4 6 8 10 12 14 16
98 98 98 98 90 83 24 15 10 7 6 5 4 3 2 2 3 5 9 11 12 14 15 15 16 16 19
96 96 72 34 17 11 9 7 6 5 4 3 3 3 6 12 15 19 22 23 21 21 23 28 33 31 31
84 35 16 11 9 8 7 6 5 4 3 3 7 16 25 28 28 23 18 14 12 12 15 18 25 36 48
20 11 8 7 6 6 5 4 4 4 6 16 29 35 35 29 26 18 17 16 16 17 15 18 19 27 46
9 8 7 6 5 4 4 4 4 21 24 32 37 27 31 30 25 25 22 17 17 17 17 23 26 35 51
7 7 6 5 5 5 6 8 20 41 43 30 37 35 38 40 44 45 36 27 28 27 24 31 34 39 50
6 6 5 6 6 7 17 30 40 49 37 30 42 37 44 48 52 56 61 49 37 35 32 33 35 38 48
5 6 6 7 12 28 44 49 44 38 44 43 40 41 46 52 56 63 65 65 63 49 38 37 41 44 45
6 7 8 25 43 54 57 48 40 38 53 41 38 47 43 51 58 66 70 72 68 70 68 61 54 46 42
9 23 44 56 62 62 51 46 47 51 58 45 43 57 63 59 57 70 74 70 64 65 63 64 66 66 61
42 52 57 62 61 53 55 54 54 62 56 58 58 69 72 68 65 67 74 70 66 70 68 68 73 78 80
51 54 58 56 54 54 60 61 60 72 71 72 68 74 81 80 73 70 70 63 78 71 79 84 87 90 88
52 56 55 57 62 61 59 59 58 64 74 70 66 76 85 89 79 69 86 77 71 87 83 80 91 98 96
51 53 56 58 59 57 57 57 59 61 61 66 65 72 84 91 89 97 88 84 80 78 79 70 81 94 94
52 53 55 56 56 59 60 63 64 69 71 67 62 72 82 83 93 81 78 76 76 73 75 68 61 82 82
52 53 52 53 55 58 65 68 68 73 76 76 64 70 80 70 79 97 81 76 76 77 85 82 76 78 86

GFSFLT2_700_rhum_078.txt.gz
RH
99 99 100 99 100 95 95 96 92 89 95 94 73 55 36 16 11 10 8 7 5 4 3 3 3 4 6
99 100 98 99 100 97 94 94 99 98 91 67 23 12 9 8 7 6 4 3 3 3 4 5 8 12 14
86 94 97 94 96 100 100 91 37 13 10 9 9 8 6 5 4 3 3 4 6 10 15 18 17 17 18
88 88 98 99 87 53 17 11 9 8 8 7 6 4 4 4 5 9 16 22 24 21 20 22 23 22 20
95 97 71 20 13 10 10 9 7 6 5 4 4 4 10 21 33 33 28 25 25 28 30 30 30 32 32
40 13 11 10 9 8 7 4 4 4 3 9 14 27 38 36 28 28 31 34 36 38 38 38 38 39 41
11 10 9 8 5 4 3 3 6 15 21 35 36 30 30 32 33 34 36 39 45 47 47 46 45 45 45
8 6 4 3 2 3 5 17 35 39 32 27 26 26 31 34 36 40 45 50 54 56 55 53 51 51 51
3 2 2 2 7 23 33 37 36 33 32 28 32 27 31 38 46 54 62 65 64 62 61 60 58 56 53
2 2 8 22 29 32 36 35 34 41 42 36 37 35 26 33 38 46 58 68 66 68 65 62 58 54 52
6 18 24 28 32 36 39 40 43 46 47 42 35 38 40 33 31 42 58 66 70 70 68 66 65 66 60
22 27 31 33 35 38 41 44 46 50 54 55 46 50 49 46 41 41 47 63 74 74 71 70 69 68 76
29 30 31 35 38 40 44 46 49 54 60 64 58 52 44 43 42 45 45 57 73 73 72 69 65 64 69
31 33 36 39 40 40 41 44 46 49 57 61 56 48 42 36 39 47 57 63 80 76 66 61 64 70 68
35 37 38 39 40 42 44 44 42 41 43 49 56 55 56 48 36 50 59 60 73 70 66 62 69 73 73
38 39 42 45 48 52 54 56 54 46 41 42 44 48 54 54 42 36 49 57 77 83 82 68 63 78 86
42 44 47 51 54 57 59 60 60 60 52 42 43 50 53 54 48 44 50 63 76 83 85 80 68 72 75

GFSFLT2_700_rhum_081.txt.gz
RH
100 99 99 99 97 94 98 98 98 98 98 97 94 96 89 81 61 35 17 12 10 9 8 7 5 4 3
98 100 91 89 90 93 97 99 100 98 96 90 55 23 12 10 9 9 8 7 6 5 4 4 4 4 6
98 99 95 94 97 97 96 93 70 30 13 10 9 8 8 8 6 5 4 4 4 4 5 6 10 15 18
100 97 97 98 96 67 21 12 10 9 8 8 6 5 4 4 5 5 6 9 13 16 18 20 21 21 22
97 94 80 29 12 10 10 8 7 5 4 4 5 6 10 18 24 28 28 26 23 22 23 25 26 27 29
27 14 12 11 9 6 4 3 3 2 6 18 21 36 37 32 26 24 23 25 28 29 30 30 32 36 38
11 9 7 5 4 2 2 3 10 18 25 36 30 28 26 27 27 28 29 30 31 34 38 41 44 45 45
4 3 2 2 2 3 12 22 26 26 24 26 24 28 31 33 35 36 37 39 41 44 48 52 52 51 50
2 2 2 2 10 18 23 27 31 33 30 29 31 31 31 36 41 46 44 43 44 48 55 58 57 55 52
2 2 6 17 20 23 25 28 29 34 32 31 32 31 26 35 43 46 43 43 43 53 60 62 64 62 56
2 12 18 21 23 25 27 29 32 33 34 32 31 32 29 27 25 32 42 40 42 49 62 68 68 67 62
14 20 23 24 25 27 28 30 33 36 38 37 36 36 34 36 38 32 30 41 42 46 61 68 72 74 71
22 24 25 27 29 30 30 32 35 38 40 39 39 39 39 42 41 47 28 28 45 42 53 66 68 70 68
26 27 28 30 32 34 38 41 44 48 49 47 43 39 37 39 42 47 44 28 33 48 55 72 75 73 69
29 31 34 38 40 43 45 48 50 53 56 59 59 50 40 39 42 54 51 35 32 40 50 60 70 80 82
34 37 40 44 48 52 54 57 58 60 60 63 60 56 42 39 50 47 37 29 23 31 46 67 69 80 78
37 40 45 50 54 56 56 57 59 60 64 66 65 56 42 36 42 50 35 29 27 36 46 62 74 79 78

GFSFLT2_700_rhum_087.txt.gz
RH
66 72 74 77 96 97 93 99 94 98 100 100 97 98 96 97 93 80 66 50 33 19 12 11 10 10 8
66 72 80 88 92 98 100 99 99 96 89 91 86 54 26 16 12 11 10 10 10 9 8 8 7 6 6
60 78 94 89 98 98 98 95 96 82 39 14 12 10 7 5 4 3 3 3 3 3 3 4 5 6 7
71 78 87 87 90 90 74 40 18 12 9 5 3 2 2 2 4 5 8 10 14 18 20 22 23 23 22
72 63 49 34 22 14 12 9 6 4 2 2 2 6 9 12 13 15 17 17 16 15 15 17 20 23 25
13 10 8 6 5 4 4 2 2 2 2 8 13 15 17 18 17 17 16 17 18 20 22 23 25 27 28
5 4 3 2 2 2 2 2 2 7 14 16 18 18 18 17 18 20 20 20 21 23 25 26 26 27 31
2 2 2 2 2 1 1 3 12 15 17 19 21 22 23 20 20 22 22 22 23 22 22 20 20 28 28
4 2 2 2 1 2 8 14 17 17 18 21 24 23 26 24 26 27 26 26 29 33 34 28 21 24 29
3 2 2 2 3 11 15 17 18 20 21 23 26 26 28 31 32 34 36 36 35 35 36 36 24 22 29
3 2 2 3 12 15 17 19 21 23 22 25 29 32 33 33 33 33 33 34 34 35 35 41 36 26 21
3 3 4 11 15 18 20 23 25 28 31 33 36 40 40 40 40 45 44 40 37 35 38 44 39 27 21
4 4 10 14 19 21 24 27 30 34 36 40 42 45 47 47 44 51 46 45 41 38 39 40 31 26 24
5 8 13 18 22 26 29 31 35 41 42 46 48 47 49 53 51 56 60 51 44 40 36 39 41 37 28
6 8 14 19 24 28 32 36 40 46 56 60 57 53 52 52 53 60 58 54 47 42 37 32 40 46 45
6 6 11 20 27 31 34 37 42 52 59 63 64 62 58 59 67 67 64 54 51 48 47 40 35 42 41
8 6 7 14 25 34 38 41 48 58 64 65 66 63 53 53 59 68 59 54 51 52 53 49 44 45 38

GFSFLT2_700_rhum_090.txt.gz
RH
47 50 52 55 57 64 67 82 74 86 88 85 88 83 82 77 72 56 34 20 14 12 11 11 10 10 10
50 48 51 51 59 64 71 72 72 75 83 85 79 61 17 13 11 10 8 5 3 2 2 2 2 2 2
59 56 63 64 66 68 66 63 58 48 37 28 16 12 9 5 3 2 2 5 8 10 11 13 14 16 17
64 66 63 44 23 18 16 12 11 10 9 7 5 3 2 2 6 8 10 9 8 10 11 12 12 15 17
23 15 13 11 8 7 5 4 4 4 3 2 2 2 7 9 8 8 10 11 12 13 14 16 18 19 21
11 9 6 4 3 2 2 2 2 2 2 1 8 10 9 9 10 12 12 12 13 16 18 19 19 20 22
10 9 8 5 4 2 2 2 1 1 3 10 11 11 11 12 14 16 16 15 16 18 19 21 24 26 20
15 14 9 6 3 2 2 2 2 6 11 13 13 14 15 15 17 18 19 18 20 22 25 26 26 28 27
16 13 9 6 3 2 2 2 8 11 14 15 18 19 20 20 22 22 23 24 25 27 27 26 26 27 30
14 10 7 4 3 2 4 9 12 15 16 17 21 21 24 28 31 33 32 31 30 30 31 30 28 27 32
15 12 8 4 3 5 10 12 15 18 18 21 25 28 30 34 40 45 48 50 47 45 43 40 34 31 32
19 16 11 6 6 10 13 16 20 22 25 26 28 32 34 35 38 45 47 49 46 48 48 44 38 35 33
22 17 12 7 9 13 17 20 24 27 29 32 34 36 39 40 37 42 44 49 52 50 50 45 39 39 38
30 20 10 7 9 12 17 21 27 30 31 33 36 39 45 45 40 45 52 45 59 56 48 43 41 38 36
35 27 16 10 8 9 14 19 26 33 39 39 38 43 50 51 48 52 51 57 61 55 50 45 47 48 45
42 36 27 19 14 10 10 11 17 29 38 44 49 52 60 64 65 61 60 67 68 65 58 48 47 55 50
49 44 39 32 26 18 14 13 14 19 30 41 51 56 61 67 67 67 65 70 68 65 59 54 46 49 47

GFSFLT2_700_rhum_093.txt.gz
RH
38 39 41 48 47 53 58 59 63 66 74 66 65 72 76 72 59 22 14 12 9 7 5 3 2 2 2
42 45 53 56 54 60 61 59 53 42 36 28 31 34 32 19 12 10 5 3 2 2 5 7 8 9 9
48 51 60 61 64 49 22 15 13 11 9 8 8 8 6 5 4 2 2 3 6 6 6 7 7 8 8
54 52 38 21 14 12 9 6 4 3 3 3 3 3 2 2 2 5 8 7 7 7 8 9 11 12 13
17 14 12 10 8 6 5 4 4 3 2 2 2 2 2 4 8 8 8 8 8 9 10 11 12 14 16
13 12 13 13 14 12 10 6 4 2 2 2 1 2 8 9 9 10 10 11 12 13 15 15 15 15 17
16 16 17 18 17 11 7 4 2 2 2 2 5 8 10 11 12 13 13 14 16 17 18 19 19 20 20
21 21 21 17 13 9 6 3 2 2 4 8 10 10 11 13 14 15 16 18 20 21 21 22 22 22 21
22 21 18 14 13 10 6 4 3 6 9 11 12 13 14 16 19 22 24 27 28 30 30 30 32 30 28
22 20 19 18 17 13 7 5 7 9 10 12 15 17 19 22 26 30 32 34 35 34 34 35 37 39 38
23 22 24 24 20 15 9 8 9 11 12 15 19 21 24 27 33 37 40 46 46 44 43 42 42 46 43
26 28 29 26 23 16 11 9 11 13 14 16 21 24 26 29 33 39 42 44 43 46 43 40 43 48 45
34 35 34 32 27 19 14 10 11 12 14 17 21 24 27 30 32 38 43 46 47 49 45 42 49 51 46
41 40 39 36 33 28 20 16 12 13 13 14 17 22 27 32 34 42 49 46 56 54 48 49 53 53 46
48 46 44 42 39 36 31 24 19 14 14 16 18 18 21 25 36 46 48 53 61 60 55 52 59 55 49
53 51 49 48 47 45 41 37 30 23 20 18 20 21 23 30 39 46 58 71 76 71 66 54 56 61 52
57 56 56 56 56 54 52 48 44 39 33 29 25 28 30 28 34 39 52 75 75 77 77 72 59 63 57

GFSFLT2_700_rhum_096.txt.gz
RH
47 41 36 41 46 45 53 48 49 58 58 61 65 62 50 50 58 58 44 21 13 9 5 3 2 2 4
37 37 45 51 52 53 55 54 56 32 19 16 15 14 10 10 9 8 7 5 4 2 2 4 6 6 7
41 46 49 50 55 49 34 16 13 10 7 5 4 4 3 3 3 2 2 2 2 5 7 7 7 8 8
51 52 44 26 15 13 11 8 6 6 5 5 3 2 2 2 2 1 2 6 7 7 7 8 8 8 8
37 17 15 14 13 12 13 14 14 12 7 5 3 2 2 2 3 7 7 7 8 8 9 9 9 9 10
16 15 15 16 17 18 19 17 14 9 6 3 2 2 3 6 8 8 9 10 11 11 12 12 12 13 13
18 18 19 21 21 20 17 14 10 6 4 3 3 5 7 8 10 11 11 11 12 13 15 16 16 16 17
21 22 23 22 20 16 14 13 9 6 5 5 6 7 8 10 12 13 14 15 17 19 21 23 24 24 25
25 24 22 21 19 19 18 16 10 8 8 7 9 9 10 13 15 17 19 21 21 23 25 27 29 29 30
25 24 22 21 22 24 21 17 14 12 11 12 11 12 14 16 18 22 23 25 26 28 29 31 31 30 32
26 24 23 26 28 26 24 21 18 15 13 14 13 14 16 18 22 24 25 26 27 27 32 38 36 34 36
27 28 30 33 32 30 28 24 22 19 18 15 14 15 17 19 24 28 32 34 33 36 38 42 43 43 43
32 35 38 38 36 34 32 30 28 27 25 22 19 18 18 18 20 25 28 32 32 37 39 45 48 49 48
41 43 44 44 42 40 39 37 36 35 33 32 31 28 24 24 25 24 27 28 38 39 38 44 50 54 55
50 50 49 49 48 47 46 46 46 45 44 44 44 43 41 39 35 32 36 40 42 44 41 48 61 63 63
56 56 56 56 56 56 55 56 56 55 54 53 53 53 52 47 43 43 39 38 40 43 50 53 66 71 75
57 59 61 64 66 65 63 64 64 63 63 62 61 60 59 55 49 41 42 44 44 48 58 68 74 79 78

GFSFLT2_700_rhum_099.txt.gz
RH
52 58 50 39 36 38 42 44 49 46 46 54 46 28 24 23 16 14 11 10 12 11 9 6 4 2 2
60 45 39 37 46 44 48 50 50 52 40 20 13 10 7 6 4 4 3 3 3 3 2 2 2 4 5
39 38 44 47 48 52 46 29 17 13 10 7 6 6 6 5 4 2 2 2 2 2 3 5 5 6 6
40 44 50 51 37 17 14 12 11 11 12 14 14 10 6 4 3 2 2 2 5 6 6 6 6 7 7
48 53 42 17 14 13 14 16 17 18 18 14 10 7 5 3 2 3 4 6 6 7 8 9 10 10 10
56 24 16 16 16 18 19 21 21 17 14 12 8 6 4 4 4 5 6 7 8 9 10 10 11 12 12
18 16 17 19 21 22 22 20 17 14 13 10 8 6 6 6 6 6 8 9 10 11 13 14 16 18 19
18 19 21 23 23 22 20 18 18 17 14 11 10 9 9 9 8 8 10 12 13 14 16 18 21 23 24
20 23 24 24 23 21 20 22 22 19 15 14 12 13 13 12 12 12 13 14 15 17 19 21 24 25 26
26 26 25 24 22 22 25 26 24 21 18 16 16 16 17 17 17 16 16 16 17 19 21 23 25 26 29
28 27 26 24 24 28 29 28 26 24 22 21 21 22 21 20 20 19 19 20 21 21 22 24 25 30 34
29 27 26 28 32 34 34 32 30 28 27 28 28 28 29 29 27 26 23 23 24 24 26 27 30 34 40
30 30 33 37 39 40 39 38 36 35 34 34 35 36 38 39 40 35 35 31 31 29 30 31 33 36 39
34 39 43 44 44 44 44 43 44 44 45 46 46 47 48 49 50 50 48 49 45 46 46 44 41 38 38
45 49 51 51 50 50 52 54 55 54 54 55 56 57 57 58 59 58 57 55 52 45 37 34 36 38 40
51 52 54 57 58 60 61 62 64 64 64 64 64 63 62 62 59 58 52 37 27 30 38 40 41 52 52
51 50 50 51 50 48 49 58 66 68 69 68 66 63 61 61 58 41 26 28 29 33 44 51 49 60 62

GFSFLT2_700_rhum_102.txt.gz
RH
58 40 48 56 54 35 36 41 45 47 50 52 50 54 34 16 11 8 6 5 4 3 3 2 2 2 2
65 50 58 53 37 33 44 44 48 50 54 52 28 14 10 6 6 7 7 5 3 2 2 2 2 2 4
63 58 55 40 39 48 47 48 34 19 14 11 9 9 11 13 12 8 5 3 2 2 2 4 4 4 5
64 59 43 42 50 49 28 15 13 13 13 15 16 17 15 12 8 6 3 3 3 4 4 5 5 6 7
55 46 42 51 47 18 14 14 16 18 20 20 17 14 12 8 6 4 5 5 5 5 6 6 7 8 8
44 42 56 42 16 15 16 18 21 21 19 16 14 12 9 7 7 8 8 8 7 7 7 8 9 10 11
46 58 31 16 17 18 21 23 23 19 16 17 14 11 9 9 10 12 12 12 11 10 10 10 11 13 14
58 28 17 18 20 23 24 22 20 19 21 18 14 12 12 12 14 15 16 16 15 16 15 14 14 15 16
21 18 19 22 24 24 23 21 22 24 22 19 16 15 15 16 17 18 19 20 20 19 18 18 18 19 20
18 20 24 26 25 24 22 24 27 27 23 21 20 19 19 20 21 24 25 25 26 26 27 26 24 24 24
22 26 28 27 26 24 26 30 31 30 27 25 24 24 26 27 28 31 32 32 34 36 36 33 34 34 33
28 30 29 28 27 30 34 35 35 34 33 32 31 31 33 35 38 39 42 44 46 46 47 50 48 46 45
33 32 31 30 33 38 40 40 40 38 39 40 41 43 45 48 50 52 53 55 57 57 57 56 56 53 46
36 35 34 38 44 46 46 44 44 46 50 52 51 51 54 58 60 61 60 59 57 54 50 31 21 22 25
40 41 43 48 52 54 55 55 56 57 58 59 59 60 61 63 61 58 56 54 50 33 17 16 18 22 25
46 46 49 52 53 54 54 53 51 50 56 62 62 62 64 63 55 54 53 47 27 17 15 13 18 26 29
48 49 51 51 49 48 46 46 45 44 47 64 66 65 63 60 58 51 49 30 18 16 15 18 23 26 30

GFSFLT2_700_rhum_108.txt.gz
RH
32 36 68 83 100 99 66 83 62 59 43 39 47 49 50 54 50 53 28 12 7 8 9 6 4 3 3
34 41 89 71 99 92 83 83 67 48 43 52 52 52 51 46 26 13 8 9 13 10 6 4 3 4 4
35 47 52 56 85 97 90 72 60 44 53 54 47 27 14 10 11 13 16 15 10 6 4 6 7 7 6
39 62 46 79 84 100 99 69 48 55 55 19 12 12 15 17 19 18 15 11 6 5 8 10 11 11 11
42 44 51 53 99 83 75 62 50 56 17 13 15 18 20 20 17 14 10 7 6 10 12 13 14 15 15
48 73 72 91 81 81 67 52 61 23 13 16 19 21 19 15 14 12 8 7 10 13 15 16 17 18 20
57 80 60 66 76 67 57 65 34 13 17 21 22 19 17 17 15 10 9 10 13 15 17 18 20 22 24
54 60 72 70 64 62 67 31 15 18 21 22 20 19 20 17 13 11 12 13 15 17 20 23 25 28 30
67 72 68 64 68 72 24 15 19 22 22 21 22 24 21 17 14 14 15 17 19 22 25 29 33 36 40
72 67 68 74 66 18 16 20 22 23 23 22 27 26 22 20 18 19 20 22 25 28 33 39 45 48 51
74 77 75 38 16 17 21 23 24 24 25 30 31 30 27 26 24 25 26 29 33 37 45 50 51 52 50
77 42 17 16 19 22 25 26 25 27 32 36 36 35 34 33 34 35 37 40 43 50 54 53 49 41 33
23 15 17 21 26 28 29 28 31 36 40 42 42 41 40 41 45 48 50 50 55 57 56 50 38 31 33
15 19 24 29 32 33 33 36 41 46 47 46 46 48 52 56 58 60 59 60 58 56 54 45 33 34 30
30 55 39 36 37 38 41 48 52 53 55 57 58 58 57 56 60 62 64 63 60 59 54 43 38 34 21
53 34 39 42 45 48 54 58 58 59 58 55 51 49 47 47 52 63 68 68 65 60 54 44 41 31 19
33 40 43 48 52 54 55 55 53 51 49 47 44 42 40 45 61 74 80 77 72 64 58 50 41 32 18

GFSFLT2_700_rhum_111.txt.gz
RH
62 66 65 48 39 66 96 89 99 89 75 70 55 44 46 53 54 56 53 56 44 14 8 12 10 5 4
77 67 59 51 41 43 97 87 100 92 78 70 46 50 49 54 54 52 42 20 9 10 14 9 6 5 7
64 59 51 47 55 78 92 86 72 100 98 63 49 54 50 37 23 12 10 11 15 14 10 5 6 9 10
52 52 49 57 76 90 92 100 86 97 95 53 59 29 14 12 12 15 18 18 15 11 6 7 10 12 13
48 50 51 53 80 100 88 58 99 80 76 57 46 13 14 16 19 20 18 15 11 7 6 11 13 15 17
48 51 65 63 79 80 81 100 100 95 64 65 20 13 17 20 21 17 14 12 8 6 10 14 16 17 19
50 52 61 70 93 86 68 71 78 71 64 39 13 16 20 22 18 17 15 11 7 9 13 15 17 19 22
51 57 66 64 72 63 69 76 69 66 54 15 16 20 22 19 20 18 13 9 10 12 14 17 19 23 28
52 54 57 64 68 75 76 72 69 54 16 16 20 22 20 22 21 16 12 12 13 15 18 20 24 29 36
64 64 66 76 84 79 74 74 52 15 16 20 22 22 23 26 22 17 15 16 17 19 22 25 30 39 47
83 81 81 81 85 85 77 40 15 18 20 21 22 24 28 29 24 22 21 21 22 25 28 33 41 50 52
95 95 95 91 82 45 18 16 19 21 22 24 25 32 34 33 31 30 30 30 32 35 40 44 53 56 51
100 91 59 28 16 14 17 20 23 26 25 27 34 39 40 40 39 39 39 42 46 49 51 57 59 56 48
68 30 14 14 16 20 24 27 29 29 31 37 44 47 46 46 46 50 54 55 58 58 60 61 60 55 49
20 13 15 20 25 29 39 34 40 36 42 49 52 51 52 56 60 59 56 56 54 56 63 64 63 58 51
14 15 36 66 64 43 47 57 43 49 57 59 60 60 59 55 51 49 50 54 65 71 74 74 69 62 56
17 31 70 80 48 64 89 53 57 59 58 58 56 52 49 45 41 41 61 79 83 88 91 91 86 91 78

GFSFLT2_700_rhum_114.txt.gz
RH
90 92 91 81 76 66 59 50 57 85 99 94 95 84 63 44 50 54 58 58 55 52 44 16 8 12 8
96 88 79 73 67 62 58 63 98 72 98 100 85 96 58 55 56 57 60 58 54 33 14 9 14 9 5
65 57 54 54 55 56 53 67 83 94 98 96 80 100 58 59 57 54 44 27 14 10 13 15 11 5 8
39 41 41 43 47 50 61 97 99 94 100 96 86 88 61 49 23 14 12 12 15 17 16 12 6 8 10
40 41 43 44 45 54 62 64 95 99 100 64 98 81 61 26 12 14 16 19 19 17 12 8 6 11 14
37 37 41 49 51 56 80 72 73 99 76 100 99 75 61 16 13 18 20 19 16 12 9 5 10 13 16
43 46 48 52 53 59 67 97 100 99 91 91 90 70 52 13 15 20 19 16 15 11 6 7 12 15 17
49 53 57 63 87 98 100 100 99 93 88 91 79 72 20 14 20 21 18 18 14 8 6 10 13 16 18
55 57 62 70 78 94 100 100 94 86 94 83 76 32 13 18 22 20 21 18 10 8 10 13 15 18 21
60 64 68 72 77 82 88 90 90 90 89 81 27 13 17 21 21 22 22 14 10 11 13 16 19 22 26
71 79 85 84 84 89 91 90 89 91 70 19 14 17 21 22 23 26 22 17 15 16 18 21 24 28 34
94 96 100 97 98 96 96 97 86 38 15 15 17 19 23 24 30 31 27 23 22 24 27 31 36 41 45
100 100 100 100 93 85 58 26 15 15 34 20 22 43 29 32 36 35 34 33 34 37 43 49 52 55 56
97 98 93 52 26 15 14 14 17 19 22 24 42 40 36 42 44 44 43 42 47 53 58 61 63 62 62
96 95 55 21 14 14 17 21 24 26 29 51 66 41 48 52 51 50 52 59 58 57 56 58 64 67 69
95 92 41 14 15 23 31 32 40 60 73 81 53 57 59 60 61 62 59 53 50 49 55 73 78 81 83
96 92 41 18 23 65 69 55 58 75 88 63 65 66 67 63 56 51 48 45 43 54 81 80 82 84 83

GFSFLT2_700_rhum_117.txt.gz
RH
87 87 87 94 94 90 87 79 72 63 60 58 84 100 98 96 88 50 53 54 59 99 62 54 51 19 9
76 82 81 78 68 60 58 55 57 59 65 99 91 97 94 88 100 59 57 54 57 58 56 56 22 10 12
45 44 43 43 42 42 42 44 48 57 64 92 95 87 95 85 95 62 61 55 57 52 38 20 10 14 11
40 40 40 40 40 41 44 46 48 55 97 87 90 100 100 79 91 64 45 34 23 13 11 12 15 14 6
36 36 37 40 41 43 45 51 59 64 79 96 100 96 100 87 95 65 17 12 13 15 16 16 16 11 5
44 42 39 40 44 49 54 81 100 94 91 100 100 100 100 100 97 67 14 14 17 19 18 16 12 6 7
46 47 44 42 48 58 73 94 99 98 87 100 100 100 100 100 92 61 13 15 19 18 14 12 9 5 10
48 46 46 49 54 74 95 100 100 100 100 99 100 100 98 94 82 34 14 18 18 16 15 11 6 7 12
54 49 52 55 60 69 94 100 100 100 100 100 100 95 95 86 55 14 17 19 18 18 14 7 6 10 13
56 53 59 62 63 66 81 100 100 100 100 98 100 100 90 56 14 15 18 20 22 18 8 6 9 12 14
56 60 67 70 72 79 82 88 97 100 100 100 100 89 33 13 14 18 21 24 23 13 8 10 13 15 18
64 74 82 93 94 97 95 98 100 100 100 98 57 18 13 16 21 35 43 26 20 14 13 15 18 21 25
73 84 93 99 97 98 97 98 95 80 52 20 14 14 15 18 41 73 30 29 24 21 22 24 28 34 41
76 84 94 95 94 76 43 25 17 14 14 17 61 55 21 41 46 34 37 35 33 32 35 41 49 55 59
81 85 89 94 90 52 18 14 14 15 17 19 20 23 49 78 43 44 46 46 45 47 55 62 64 62 59
84 87 89 92 84 40 18 16 20 22 23 27 43 76 83 82 53 55 54 54 58 64 63 57 56 66 79
84 89 90 96 90 33 19 25 40 36 34 53 72 88 85 63 63 63 65 65 61 54 51 51 70 77 75

GFSFLT2_700_rhum_120.txt.gz
RH
76 82 79 82 80 81 81 78 74 69 64 61 74 66 71 97 99 85 88 78 58 56 52 56 62 58 71
45 45 45 47 47 46 45 44 44 46 49 50 66 65 100 100 100 100 85 96 63 62 62 94 89 60 54
40 40 39 39 40 40 40 40 42 45 49 51 86 100 89 100 96 96 88 90 62 64 65 63 60 56 24
40 38 35 32 31 34 34 38 43 45 53 58 74 97 100 87 100 97 89 93 64 65 62 56 44 21 11
34 32 30 32 40 41 36 37 43 50 58 66 88 99 93 100 98 94 97 100 60 39 25 16 12 12 14
28 29 32 40 46 45 43 42 50 77 83 98 100 97 98 100 100 100 99 100 65 16 14 14 16 16 14
27 31 45 44 46 44 47 50 60 96 99 99 100 100 99 99 100 100 100 100 66 15 15 17 17 16 12
39 48 52 49 47 47 50 58 85 100 100 100 98 99 100 100 100 100 100 100 47 14 16 17 14 12 10
52 53 52 51 48 52 54 64 90 100 100 100 99 99 100 100 97 99 98 85 22 14 16 16 15 12 6
58 56 55 52 52 57 62 62 82 100 100 100 100 100 100 100 100 99 89 27 13 16 18 31 23 8 4
62 58 55 53 61 66 71 76 88 93 98 100 100 100 100 100 98 56 15 13 16 33 26 41 9 5 7
63 59 59 62 73 74 79 90 92 96 99 100 100 100 99 90 27 12 13 18 30 26 46 15 7 9 11
64 65 66 75 81 83 89 89 85 92 97 98 99 92 53 17 12 14 28 48 68 71 17 10 11 13 15
71 72 78 81 83 85 87 77 51 34 30 26 23 15 15 15 14 15 34 63 72 26 20 16 18 20 23
78 78 82 84 84 86 86 78 48 23 16 14 14 16 52 57 28 41 49 56 35 32 28 26 30 35 42
84 83 83 84 85 89 89 78 50 25 22 18 19 19 20 23 38 69 81 60 44 42 42 43 48 59 65
88 86 84 85 85 90 94 82 43 26 26 42 40 34 40 69 83 87 85 65 56 53 59 66 68 64 62

GFSFLT2_700_rhum_123.txt.gz
RH
49 44 48 50 47 47 49 47 48 49 49 51 52 53 54 50 89 69 99 96 74 96 94 65 99 100 100
39 35 39 40 40 40 38 38 39 41 43 45 47 48 48 61 57 98 100 100 93 93 91 72 99 100 100
39 40 39 37 36 34 31 30 32 34 37 41 48 52 56 73 100 91 90 99 78 94 91 75 76 100 99
42 39 34 32 30 29 28 32 41 44 45 45 54 60 77 97 95 94 86 98 97 95 98 72 75 78 81
38 32 26 24 24 27 27 34 37 41 44 48 61 88 79 100 100 96 99 96 98 90 98 61 64 67 61
32 25 28 25 26 32 45 42 45 44 47 62 84 98 100 92 99 99 98 99 100 94 95 59 27 17 14
28 29 27 27 34 44 46 45 45 47 51 74 100 99 99 98 98 98 96 98 100 98 98 74 17 15 15
36 36 36 40 43 47 45 46 44 49 63 88 99 100 99 99 98 98 98 100 99 99 100 65 16 15 16
46 46 51 51 48 48 49 43 44 54 65 90 100 100 99 97 98 97 99 93 99 100 100 35 14 15 14
50 49 50 54 51 53 49 50 51 57 69 83 100 100 100 99 99 98 98 99 99 99 64 15 15 16 15
46 44 52 56 55 54 52 62 62 64 72 87 96 100 100 100 100 96 95 98 95 48 14 14 17 30 70
49 44 50 60 58 60 62 68 74 76 81 94 100 100 100 100 100 100 96 55 15 13 16 35 36 42 35
55 49 56 62 63 65 66 73 80 80 72 60 74 96 98 99 98 87 31 12 12 20 29 35 46 68 20
61 64 64 60 68 71 73 78 82 80 66 38 26 25 28 33 21 13 12 12 18 42 57 66 74 26 9
67 72 66 67 72 74 78 81 81 80 65 40 22 15 14 14 22 30 18 16 25 54 67 54 25 15 14
70 73 72 74 76 77 80 83 80 85 77 50 24 20 17 16 19 39 44 56 60 72 82 38 28 23 22
71 74 80 84 84 82 87 85 85 87 83 50 24 30 31 22 22 26 28 58 75 87 80 49 38 37 38

GFSFLT2_700_rhum_126.txt.gz
RH
66 56 42 38 37 38 38 37 39 38 40 39 40 41 45 47 50 50 50 100 94 99 89 87 96 87 75
57 38 36 38 38 38 35 34 32 29 29 28 33 38 41 44 50 54 69 71 96 86 94 87 95 87 100
40 40 37 37 37 33 27 26 25 24 23 27 35 44 50 52 54 70 94 100 98 84 99 98 88 93 97
41 40 39 36 35 27 23 19 19 19 28 34 36 40 44 53 72 95 93 99 90 95 92 98 86 91 78
42 37 38 34 26 22 22 21 21 33 39 38 38 40 47 54 91 95 97 98 99 100 99 99 90 87 67
42 38 35 27 24 24 23 22 29 40 38 38 42 49 62 75 100 99 95 93 96 99 98 91 89 90 46
42 35 30 28 30 32 30 35 39 38 36 40 40 47 63 99 100 100 100 98 89 94 98 97 92 99 39
40 34 31 33 37 41 41 39 38 36 35 39 43 50 69 90 100 100 98 98 92 95 98 97 96 98 51
40 40 42 41 38 38 36 33 36 42 40 46 50 53 61 93 91 100 97 88 90 95 85 85 94 98 42
41 48 46 41 39 40 36 44 50 48 50 55 58 57 60 71 85 100 98 100 99 94 86 94 99 94 24
46 54 50 49 47 44 48 52 51 52 63 62 65 66 70 70 81 96 99 96 90 88 92 96 96 33 13
68 62 58 56 52 47 54 60 56 60 63 70 68 68 71 77 87 96 95 94 98 94 84 51 17 13 16
69 67 66 65 59 54 59 60 61 66 69 73 75 66 59 62 77 96 91 91 87 34 13 12 14 36 39
78 77 75 72 65 67 67 68 63 69 72 74 75 71 51 36 30 27 31 27 16 12 12 27 50 64 59
80 78 78 76 68 70 70 70 72 70 73 72 76 74 61 40 20 15 16 20 14 13 14 25 70 70 85
83 65 64 73 69 72 73 78 74 75 71 74 79 81 70 42 39 20 16 37 43 27 27 33 64 82 50
76 62 62 71 69 76 84 83 83 80 80 82 82 83 75 45 38 36 24 20 23 26 60 82 87 94 69

GFSFLT2_700_rhum_129.txt.gz
RH
71 72 70 60 41 36 34 34 33 32 28 27 26 24 27 34 38 40 40 46 49 57 64 95 68 86 89
78 78 62 44 41 39 35 32 31 24 22 22 22 23 24 30 37 39 48 50 61 63 89 100 76 94 93
58 52 44 38 38 34 33 34 28 22 22 19 20 25 34 35 41 43 52 58 74 100 100 99 80 94 89
55 50 42 41 41 37 34 29 23 22 23 21 20 30 33 33 39 44 79 100 100 100 100 94 92 79 94
50 45 44 45 38 35 30 27 27 25 24 22 28 32 31 34 36 48 58 98 97 100 100 100 100 95 96
44 45 46 44 37 31 26 26 31 30 32 34 33 30 34 38 40 50 96 100 100 99 97 97 97 95 86
53 49 47 42 34 29 28 29 33 36 35 35 32 30 29 39 46 65 89 96 99 100 99 90 86 94 93
50 48 45 40 34 31 40 38 32 31 33 37 35 38 38 46 48 56 90 95 99 98 96 95 95 95 90
54 51 45 42 37 41 42 38 37 36 37 38 44 46 48 51 54 61 89 95 99 96 91 98 100 95 88
56 51 45 41 41 50 46 45 42 38 40 41 48 50 53 58 59 66 80 88 98 97 96 96 98 88 92
57 54 51 56 60 58 54 51 48 44 45 44 52 55 58 61 64 73 82 91 91 95 94 87 86 93 99
58 59 58 68 65 61 62 59 54 48 53 58 60 61 62 65 63 72 81 88 89 87 90 90 95 95 93
66 63 68 79 73 70 69 67 59 53 59 54 66 67 68 70 62 47 55 74 87 89 87 84 49 20 14
78 79 79 83 84 80 78 74 68 69 62 67 68 73 72 70 69 52 37 24 26 28 31 19 13 14 18
93 86 82 82 82 78 81 77 70 68 73 72 73 75 77 74 76 66 46 21 16 18 15 13 12 32 59
97 88 83 81 80 66 60 66 68 73 74 73 78 74 76 78 71 64 55 44 22 21 44 20 16 22 56
93 81 80 79 75 61 56 71 73 81 88 85 86 83 82 85 77 68 59 48 40 23 20 28 45 56 66

GFSFLT2_700_rhum_132.txt.gz
RH
84 85 82 78 68 69 64 35 30 30 32 30 24 21 21 22 22 28 28 30 35 46 48 52 62 85 73
97 94 94 78 68 59 39 30 34 32 31 28 22 21 19 18 25 32 33 35 35 50 56 75 94 81 89
98 88 98 81 48 36 30 33 32 31 28 25 22 22 21 20 30 32 32 35 52 52 74 100 100 81 89
98 98 96 58 43 34 31 33 32 29 25 25 25 24 23 30 32 30 35 38 51 99 88 99 98 85 90
99 91 86 60 44 34 35 36 31 27 25 26 29 30 32 31 28 29 36 46 64 77 88 88 99 100 90
99 95 71 52 41 38 37 33 29 27 32 35 34 33 31 30 29 31 39 50 76 90 100 100 100 93 100
95 74 57 49 40 39 38 34 32 32 36 36 33 32 32 31 34 38 47 57 76 94 88 91 92 99 92
75 60 52 44 44 45 38 35 35 40 38 38 37 34 34 35 38 43 49 59 86 100 100 100 99 99 96
62 56 51 48 49 43 39 36 40 44 42 43 40 36 36 42 46 48 52 60 70 92 97 98 98 94 97
60 55 53 53 49 43 40 41 42 46 47 46 42 39 43 47 50 53 54 60 68 75 74 95 97 96 99
70 63 59 57 52 48 44 46 51 53 54 51 45 44 47 50 53 58 60 67 66 72 79 90 99 96 96
76 71 67 60 55 55 55 62 63 60 59 57 50 52 56 59 62 62 60 61 72 83 78 86 87 90 94
85 76 71 66 64 60 59 69 69 66 67 65 57 61 64 66 68 70 65 57 48 59 72 81 86 86 80
93 81 74 71 72 71 73 75 76 76 76 73 70 70 65 65 68 71 70 64 56 45 32 38 39 39 21
92 87 87 82 80 77 76 80 79 76 79 78 77 75 72 70 70 70 72 72 65 56 29 21 18 15 12
97 95 95 90 88 83 80 77 76 64 70 77 84 82 78 78 76 72 68 65 61 58 46 21 32 29 13
96 97 97 96 92 82 78 80 72 66 70 82 92 91 87 88 85 82 76 74 70 58 51 40 22 32 26

GFSFLT2_700_rhum_135.txt.gz
RH
72 87 87 93 93 84 79 78 68 58 35 29 26 26 27 21 20 19 19 32 34 33 43 41 53 55 58
99 98 83 99 98 100 97 85 68 40 32 29 26 25 23 19 21 22 26 37 32 33 34 40 60 63 68
89 98 95 97 98 99 100 87 50 38 30 26 26 24 21 22 22 21 27 33 29 31 41 56 73 100 99
82 95 82 98 100 99 95 75 46 34 27 27 26 23 23 25 25 30 31 31 30 34 42 82 94 100 100
88 72 74 90 96 83 80 60 41 36 30 28 25 25 26 29 28 25 25 25 28 32 51 84 87 78 79
98 100 97 100 84 81 65 46 39 38 35 30 27 28 28 27 26 26 26 28 34 46 58 74 82 100 100
98 100 100 95 84 65 52 45 41 39 35 32 32 32 31 31 29 28 31 33 36 44 65 100 92 92 83
100 99 99 94 76 54 47 47 44 40 36 35 39 38 36 34 31 30 38 40 43 50 61 98 90 86 99
99 97 89 80 62 54 57 52 46 41 40 41 43 44 41 36 32 37 42 44 47 53 61 87 93 92 100
88 78 76 69 69 62 57 52 47 42 43 46 50 49 45 40 38 40 48 52 53 57 61 65 72 67 78
89 85 90 93 78 65 64 57 50 45 46 51 56 56 53 45 44 49 56 56 56 58 63 74 82 76 81
98 98 98 98 94 80 69 61 55 51 56 64 65 63 61 53 50 58 62 62 59 59 66 76 80 84 81
98 98 98 96 98 91 76 73 67 63 68 76 73 71 68 59 55 59 61 64 64 60 52 54 76 85 85
98 98 98 96 96 95 86 73 67 64 65 75 80 80 76 66 59 64 63 65 66 66 56 32 30 38 47
98 97 99 98 93 90 81 76 76 67 66 73 78 81 81 72 69 69 70 71 69 71 66 46 25 22 23
100 100 98 96 98 95 91 91 86 73 64 68 72 68 73 74 72 74 76 74 71 69 64 57 46 30 24
98 99 100 99 98 96 94 93 91 74 61 62 63 62 82 84 84 85 84 81 79 78 70 56 46 42 25

GFSFLT2_700_rhum_141.txt.gz
RH
58 64 65 66 67 71 70 73 67 80 84 84 73 79 88 53 35 30 27 26 25 21 21 23 20 27 35
54 59 64 67 69 70 72 73 85 79 99 75 75 80 68 40 31 23 24 25 24 23 23 23 23 32 40
58 62 63 67 66 68 74 70 91 90 89 83 77 70 47 35 28 25 22 22 24 25 23 26 32 37 37
60 58 64 75 70 67 66 80 91 96 94 90 92 58 46 33 27 24 23 22 25 24 27 30 33 36 42
58 62 70 74 69 77 81 83 79 94 100 99 91 84 49 30 26 25 25 25 24 24 25 27 32 36 42
62 64 67 68 89 93 82 89 92 94 100 99 86 49 36 30 30 31 27 25 24 25 29 32 37 44 73
76 65 70 77 89 97 96 96 100 100 98 99 62 49 41 33 32 31 30 29 30 32 32 32 34 46 67
80 79 91 98 98 98 100 98 99 100 99 98 84 62 44 39 36 32 31 34 35 36 34 31 33 45 63
98 97 98 98 99 99 100 100 99 99 99 95 72 58 46 39 37 36 34 34 37 37 35 35 39 47 68
86 85 86 96 99 99 99 100 99 100 100 92 60 55 51 46 42 40 40 43 43 43 40 37 40 52 67
89 95 100 98 99 100 100 100 99 99 98 91 72 67 59 54 48 43 42 48 51 51 46 42 46 56 63
100 99 100 100 100 100 100 98 96 93 96 98 97 94 87 62 50 50 55 56 58 57 51 45 50 58 64
100 100 100 100 100 99 99 97 97 95 96 98 98 97 96 66 62 64 68 68 67 63 56 50 56 60 58
99 99 99 99 99 99 99 99 100 99 98 96 97 94 90 84 71 66 70 77 74 72 64 58 60 64 64
99 99 99 99 99 99 99 99 98 98 98 99 94 91 86 75 69 65 68 76 80 79 71 66 70 71 68
99 98 99 98 98 99 99 98 99 97 98 97 97 95 86 79 77 70 65 70 80 84 77 72 71 73 73
93 96 97 97 98 98 97 99 96 98 98 97 97 96 94 92 79 65 61 60 72 84 85 79 79 74 72

GFSFLT2_700_rhum_144.txt.gz
RH
46 49 53 62 66 66 68 67 67 67 67 64 68 68 75 74 69 70 44 31 27 26 24 23 22 25 25
44 46 53 50 59 67 68 67 66 67 67 65 76 76 83 76 74 65 38 30 25 24 25 23 24 26 28
54 46 55 56 58 60 64 68 66 67 72 73 85 89 96 87 80 61 44 29 26 24 24 25 26 28 28
67 53 56 56 61 62 61 59 61 67 87 86 97 94 96 87 87 61 58 38 26 25 24 25 27 32 34
67 65 59 59 58 58 65 62 68 75 76 80 91 98 93 97 99 81 70 38 28 29 27 27 27 28 30
85 75 69 67 65 73 80 80 78 87 79 96 94 100 99 99 98 75 46 32 31 29 26 27 29 32 32
99 99 87 91 91 97 98 98 94 93 96 97 99 99 100 99 99 59 43 38 32 30 29 30 32 32 33
97 96 99 100 99 100 99 98 99 99 99 98 100 99 100 100 99 59 49 40 34 35 35 34 34 35 35
100 100 100 100 100 99 100 100 99 98 99 100 99 100 100 99 99 68 57 44 40 37 36 38 39 39 40
99 99 99 99 99 99 99 98 98 98 93 100 99 100 100 97 98 74 55 48 42 40 43 45 46 45 43
100 99 100 100 98 96 99 97 99 99 99 100 99 100 99 98 94 67 53 48 44 47 48 50 50 49 47
100 100 100 100 100 100 100 100 99 98 100 98 100 99 99 99 91 82 63 52 52 55 57 56 56 52 47
100 100 99 98 99 100 100 100 100 99 100 100 100 99 99 98 98 97 91 80 64 56 61 63 62 57 53
99 99 100 99 99 99 99 99 100 99 100 100 99 99 100 99 98 98 98 97 72 66 66 69 69 66 60
6 9 38 74 98 99 98 99 98 99 99 99 99 99 98 98 98 98 99 92 79 69 71 74 74 71 63
5 9 12 9 12 46 95 98 98 98 98 98 99 99 98 98 98 97 97 83 73 69 73 75 79 75 69
13 21 20 21 24 40 100 81 95 98 98 98 98 98 97 97 97 96 93 82 74 70 68 69 79 79 76

GFSFLT2_700_rhum_147.txt.gz
RH
98 91 42 49 54 50 68 65 65 65 66 66 66 63 62 56 60 67 76 74 78 58 35 30 27 25 25
98 99 93 50 60 56 70 68 69 68 68 70 70 66 63 60 63 72 69 77 82 69 44 32 28 25 24
100 100 100 68 51 50 73 71 69 63 61 70 73 70 68 74 74 75 76 82 85 80 56 40 31 27 25
100 100 98 95 65 57 66 72 67 66 67 73 81 76 83 85 74 75 85 90 98 87 75 66 33 29 28
100 98 98 93 97 67 71 70 87 93 91 90 96 88 78 79 77 84 95 92 92 86 94 65 34 29 28
84 86 100 81 100 97 71 90 92 81 89 95 98 96 95 90 88 83 97 99 96 88 96 58 36 30 30
87 96 99 99 96 100 90 90 89 96 100 99 99 95 96 100 95 96 100 99 98 98 90 53 40 33 35
99 99 96 99 86 100 100 100 100 97 99 98 99 98 100 99 99 100 100 99 100 99 84 53 41 36 36
100 100 100 100 100 100 99 99 99 100 100 99 97 99 99 99 100 100 99 99 100 100 96 56 44 39 37
89 100 100 100 100 100 100 100 100 98 99 100 100 100 100 98 94 100 99 100 99 99 97 60 46 41 41
98 99 99 100 100 100 100 100 100 97 98 100 100 100 100 99 98 100 100 100 100 99 97 60 48 48 48
100 100 100 100 100 100 100 100 100 99 100 100 100 100 100 100 99 100 100 100 99 99 97 66 59 52 54
100 100 100 100 100 100 100 100 100 99 100 100 100 100 100 99 98 99 100 100 99 99 97 91 66 58 61
6 5 5 5 7 11 29 57 87 98 99 99 100 100 99 99 100 100 99 99 99 98 97 97 90 88 72
5 5 5 5 5 5 6 8 9 13 17 59 96 98 99 98 98 99 98 98 98 98 96 96 97 92 70
5 5 5 6 6 9 14 18 15 15 16 35 56 72 97 97 98 98 98 98 98 97 98 98 95 88 76
20 18 14 12 13 17 20 25 28 34 82 100 100 100 93 97 98 97 97 98 98 98 97 96 96 95 85